Grand Forks, ND

2:22 AM CDT on April 24, 2018 (GMT -0500)
Grand Forks International

Weather History for KGFK - June, 2013

Change the Weather History Date:

Sunday, June 23, 2013

  Actual Average Record
Temperature  
Mean Temperature 68 °F 66 °F  
Max Temperature 76 °F 78 °F 93 °F (2005)
Min Temperature 60 °F 54 °F 34 °F (1967)
Degree Days  
Heating Degree Days 0 2  
Month to date heating degree days 77 91  
Since 1 June heating degree days 77 91  
Since 1 July heating degree days 9965 9503  
Cooling Degree Days 3 3  
Month to date cooling degree days 56 49  
Year to date cooling degree days 65 66  
Since 1 June cooling degree days 56 49  
Growing Degree Days 18 (Base 50)    
Moisture  
Dew Point 62 °F    
Average Humidity 75    
Maximum Humidity 100    
Minimum Humidity 49    
Precipitation  
Precipitation 0.19 in 0.13 in 1.50 in (1969)
Month to date precipitation 2.62 2.62  
Year to date precipitation 10.79 8.34  
Snow  
Snow 0.00 in 0.00 in - ()
Month to date snowfall 0.0 0.0  
Since 1 June snowfall 0.0 0.0  
Since 1 July snowfall 50.2 47.4  
Snow Depth 0.00 in    
Sea Level Pressure  
Sea Level Pressure 29.62 in    
Wind  
Wind Speed 12 mph (SSW)    
Max Wind Speed 28 mph    
Max Gust Speed 35 mph    
Visibility 8 miles    
Events Rain    
T = Trace of Precipitation, MM = Missing Value Source: NWS Daily Summary

Daily Weather History Graph

Daily Weather History Graph

Search for Another Location

Airport or City:

Astronomy

Jun. 23, 2013 Rise Set
Actual Time 5:29 AM CDT 9:32 PM CDT
Civil Twilight 4:48 AM CDT 10:13 PM CDT
Nautical Twilight 3:51 AM CDT 11:10 PM CDT
Astronomical Twilight 2:13 AM CDT 12:48 AM CDT
Moon 9:38 PM CDT (6/23) 5:54 AM CDT (6/23)
Length of Visible Light 17h 24m
Length of Day
16h 02m
Full, 100% of the Moon is Illuminated
Jun 23
Full
Jun 29
Last Quarter
Jul 8
New
Jul 15
First Quarter
Jul 22
Full

Hourly Weather History & Observations

Time (CDT) Temp. Dew Point Humidity Pressure Visibility Wind Dir Wind Speed Gust Speed Precip Events Conditions
12:53 AM 69.1 °F 64.9 °F 87% 29.72 in 10.0 mi SE 6.9 mph - N/A   Clear
1:53 AM 69.1 °F 64.0 °F 84% 29.73 in 10.0 mi SSE 12.7 mph 19.6 mph N/A   Clear
2:53 AM 68.0 °F 64.9 °F 90% 29.69 in 10.0 mi SE 9.2 mph - N/A   Clear
3:53 AM 66.0 °F 64.9 °F 96% 29.68 in 10.0 mi SE 9.2 mph - N/A   Clear
4:53 AM 64.9 °F 64.0 °F 97% 29.66 in 10.0 mi SE 9.2 mph - N/A   Clear
5:53 AM 64.9 °F 63.0 °F 93% 29.63 in 10.0 mi SE 9.2 mph - N/A   Mostly Cloudy
6:53 AM 66.0 °F 63.0 °F 90% 29.61 in 10.0 mi SE 10.4 mph - N/A   Mostly Cloudy
7:53 AM 66.9 °F 63.0 °F 87% 29.59 in 10.0 mi SE 5.8 mph - N/A   Mostly Cloudy
8:30 AM 66.2 °F 64.4 °F 94% 29.62 in 10.0 mi SE 5.8 mph - N/A   Overcast
8:38 AM 66.2 °F 64.4 °F 94% 29.62 in 9.0 mi SSE 5.8 mph - 0.00 in Rain Light Rain
8:53 AM 66.9 °F 64.0 °F 90% 29.60 in 10.0 mi SE 5.8 mph - 0.00 in   Mostly Cloudy
9:53 AM 68.0 °F 66.0 °F 93% 29.58 in 10.0 mi SSE 8.1 mph - 0.01 in Rain Light Rain
10:53 AM 66.9 °F 66.0 °F 97% 29.55 in 6.0 mi South 3.5 mph - 0.03 in Rain Light Rain
11:07 AM 66.2 °F 64.4 °F 94% 29.56 in 1.8 mi SSE 6.9 mph - 0.02 in Rain Light Rain
11:20 AM 66.2 °F 66.2 °F 100% 29.56 in 3.0 mi South 5.8 mph - 0.08 in Rain Light Rain
11:28 AM 66.2 °F 66.2 °F 100% 29.56 in 3.0 mi SSW 5.8 mph - 0.09 in Rain Light Rain
11:31 AM 66.2 °F 66.2 °F 100% 29.56 in 1.8 mi SSW 3.5 mph - 0.09 in Rain Light Rain
11:40 AM 66.2 °F 66.2 °F 100% 29.55 in 2.0 mi South 3.5 mph - 0.13 in Rain Light Rain
11:53 AM 66.9 °F 66.0 °F 97% 29.55 in 2.0 mi SSW 5.8 mph - 0.15 in Rain Light Rain
12:00 PM 66.2 °F 66.2 °F 100% 29.56 in 10.0 mi SSW 9.2 mph - 0.00 in Rain Light Rain
12:15 PM 66.2 °F 64.4 °F 94% 29.56 in 10.0 mi WSW 9.2 mph - 0.00 in Rain Light Rain
12:53 PM 70.0 °F 64.0 °F 81% 29.57 in 10.0 mi West 15.0 mph - 0.00 in   Mostly Cloudy
1:37 PM 71.6 °F 62.6 °F 73% 29.57 in 10.0 mi WSW 17.3 mph 25.3 mph N/A   Overcast
1:53 PM 71.1 °F 63.0 °F 75% 29.57 in 10.0 mi WSW 20.7 mph 26.5 mph N/A   Mostly Cloudy
2:53 PM 73.9 °F 60.1 °F 62% 29.57 in 10.0 mi West 18.4 mph 27.6 mph N/A   Scattered Clouds
3:53 PM 73.9 °F 59.0 °F 59% 29.60 in 10.0 mi West 16.1 mph 25.3 mph N/A   Mostly Cloudy
4:53 PM 75.0 °F 57.9 °F 55% 29.61 in 10.0 mi West 24.2 mph 33.4 mph N/A   Scattered Clouds
5:53 PM 73.0 °F 55.9 °F 55% 29.63 in 10.0 mi West 20.7 mph 27.6 mph N/A   Mostly Cloudy
6:53 PM 72.0 °F 52.0 °F 49% 29.65 in 10.0 mi West 18.4 mph 28.8 mph N/A   Partly Cloudy
7:53 PM 71.1 °F 53.1 °F 53% 29.68 in 10.0 mi West 16.1 mph 23.0 mph N/A   Scattered Clouds
8:53 PM 68.0 °F 53.1 °F 59% 29.71 in 10.0 mi WSW 10.4 mph - N/A   Partly Cloudy
9:53 PM 64.0 °F 54.0 °F 70% 29.73 in 10.0 mi SW 9.2 mph - N/A   Scattered Clouds
10:53 PM 61.0 °F 55.0 °F 81% 29.73 in 10.0 mi South 6.9 mph - N/A   Scattered Clouds
11:53 PM 61.0 °F 55.0 °F 81% 29.72 in 10.0 mi SSW 9.2 mph - N/A   Clear